RH
48 41 27 22 19 18 18 16 10 10 11 10 10 11 10 10 11 18 22 45 48 41 50 87 67 69 100 97 58 44 82 87 66 76 81 92 90 72 84 87 78 90 52 33 51
49 35 24 21 20 20 21 16 12 10 11 10 10 11 10 11 14 25 42 53 61 42 28 100 64 76 100 88 49 44 75 97 67 80 77 97 94 100 87 83 83 66 66 59 38
48 37 29 25 24 23 23 17 14 11 11 9 10 10 10 13 18 37 53 72 66 45 25 100 87 73 100 82 52 47 59 92 99 94 73 96 96 98 98 76 53 59 55 82 62
46 36 35 30 27 25 26 18 16 13 10 9 10 10 12 14 28 54 67 81 70 47 21 96 100 85 100 93 63 53 77 82 100 100 95 97 95 98 84 100 66 62 74 82 95
47 39 38 37 30 29 28 19 16 13 10 9 9 10 14 17 41 72 83 82 68 42 22 66 100 100 100 100 61 56 80 95 100 98 97 98 94 97 91 91 54 47 61 88 87
49 43 41 40 36 32 27 20 15 11 9 9 9 9 16 26 63 82 89 79 60 36 26 71 95 100 100 100 90 44 69 100 100 98 97 98 90 90 98 82 49 52 44 57 95
52 45 45 44 37 36 26 18 13 10 7 7 8 12 19 36 67 87 80 70 45 30 27 73 80 100 100 100 96 53 64 100 98 86 100 98 97 72 92 82 56 57 60 53 65
56 52 50 45 36 35 26 17 12 9 6 6 8 13 20 36 78 79 74 72 37 30 39 77 75 93 100 100 94 83 76 96 97 88 95 98 93 77 97 96 57 53 68 66 57
62 58 48 41 37 30 25 15 11 8 6 6 8 13 19 60 82 77 88 58 46 35 43 75 97 88 100 100 98 99 79 88 99 96 100 96 93 97 90 97 93 87 69 64 45
68 56 49 42 38 31 23 13 10 7 6 6 8 16 20 60 72 75 88 59 63 42 45 69 100 86 100 100 91 93 98 94 97 99 96 88 99 98 94 96 94 88 76 62 43
70 55 48 46 39 32 21 13 10 6 4 4 7 12 35 67 69 87 72 90 87 68 46 48 100 87 100 100 90 81 100 90 97 100 98 87 97 100 98 97 99 97 66 62 68
69 55 50 48 40 31 19 13 9 6 4 5 9 22 48 55 63 90 61 77 100 88 70 48 95 96 100 100 100 98 100 100 96 100 99 99 98 99 94 100 98 98 95 54 59
75 55 51 49 39 30 18 14 8 5 4 6 10 25 40 47 70 70 55 89 88 99 88 74 84 91 100 100 100 100 98 100 99 86 93 98 100 100 98 94 96 94 88 95 58
80 58 55 50 42 27 17 12 8 6 5 5 11 31 46 70 68 60 56 59 64 90 72 96 65 96 100 100 100 97 94 87 96 100 97 98 92 93 87 99 100 90 74 86 74
82 62 58 48 40 24 17 11 8 6 5 5 9 29 70 69 76 65 50 57 74 74 71 82 82 87 87 91 88 98 83 95 100 100 97 100 98 85 97 98 91 89 85 79 69
80 62 60 48 42 25 17 11 9 6 5 5 7 36 49 58 69 66 58 54 98 100 95 94 94 100 100 100 100 60 100 97 100 95 86 88 94 82 81 71 67 65 73 74 65
76 64 58 46 39 25 17 12 11 7 5 4 8 37 54 60 68 58 67 43 66 100 83 94 98 99 100 100 100 99 100 100 100 98 100 100 100 97 70 77 57 61 63 56 54
74 70 61 48 36 25 18 13 11 8 5 3 7 46 59 57 65 56 71 56 42 100 99 96 100 100 100 99 100 98 100 94 93 81 66 96 93 77 98 74 48 47 54 47 22
85 84 63 50 38 28 19 13 11 8 5 4 9 47 54 59 72 57 66 65 57 100 100 98 99 96 98 100 96 100 99 76 74 86 79 53 49 59 60 72 49 50 62 53 29
95 89 64 50 39 29 18 14 12 8 5 4 6 45 53 59 58 54 53 57 70 96 100 87 85 94 91 100 100 99 98 99 73 81 77 60 76 61 58 59 48 65 58 29 28
95 80 60 48 39 25 18 15 12 8 6 4 6 28 47 58 51 47 60 54 67 64 79 72 63 64 82 95 94 100 96 100 90 84 82 76 64 69 59 76 80 77 79 61 41
94 73 58 49 39 24 18 16 12 9 7 4 5 22 38 57 38 46 40 44 42 51 55 50 41 35 76 79 86 86 97 96 70 60 66 67 81 83 82 97 78 62 40 50 51
94 71 57 52 37 24 19 16 12 9 7 5 4 10 36 55 45 42 89 64 53 81 59 58 28 38 68 57 77 85 90 100 99 100 100 92 92 94 89 95 52 44 29 23 33
88 72 58 55 36 26 20 17 12 10 7 6 4 8 36 41 57 69 53 70 68 60 74 62 61 66 69 74 76 90 95 95 99 100 100 100 100 100 75 55 81 55 39 28 22
86 71 58 53 39 28 21 18 12 10 8 6 4 6 19 34 53 62 75 62 57 51 44 62 67 74 70 76 79 86 97 96 100 100 100 100 97 80 83 52 58 57 81 88 74
82 69 59 52 43 30 23 18 14 11 9 7 5 6 12 36 51 61 74 78 74 52 50 45 54 74 85 76 86 91 84 76 99 98 97 100 96 100 88 98 99 97 66 40 67
83 70 61 53 46 31 24 20 16 12 10 8 5 5 11 23 52 58 65 72 93 86 73 48 43 50 80 88 97 100 100 100 100 100 96 84 92 89 100 100 100 100 98 76 41
Wind_Speed
32 33 33 34 37 40 43 46 49 54 59 64 65 66 68 53 44 38 37 34 32 32 21 11 43 57 62 62 65 67 74 61 70 75 51 57 54 52 54 59 55 54 57 50 47
32 31 32 34 37 41 43 47 50 56 61 67 68 68 68 52 40 36 35 32 30 29 16 19 37 54 54 62 65 68 78 32 69 68 62 57 60 51 62 59 53 55 48 55 48
31 31 32 35 38 43 45 47 52 58 63 67 70 71 66 48 41 37 31 29 27 28 14 27 31 48 43 64 65 68 74 62 53 67 70 59 61 64 47 57 59 52 57 48 51
30 30 34 36 40 43 46 48 52 58 64 68 70 70 61 46 35 34 28 26 26 27 15 35 28 40 41 64 65 67 70 78 46 63 68 65 61 66 66 51 56 56 47 49 49
30 31 35 35 40 44 46 49 52 59 64 69 72 67 55 45 33 30 25 25 27 24 15 39 33 37 48 52 63 67 72 69 77 64 61 61 63 46 50 61 62 61 57 48 49
29 31 33 37 42 45 45 48 53 59 66 71 72 67 51 37 32 22 23 26 29 21 16 34 31 23 46 41 67 66 70 70 69 61 53 65 69 62 52 46 61 60 58 57 49
29 31 34 40 42 44 44 48 54 60 67 72 70 61 49 36 23 20 23 29 29 20 19 35 43 32 29 40 64 66 65 73 64 60 48 54 63 61 58 59 61 63 60 58 54
29 31 36 39 40 42 44 47 54 61 69 72 68 54 45 31 18 22 26 31 26 19 21 32 45 44 21 29 56 60 63 68 63 63 54 58 60 62 52 52 50 61 62 59 56
30 33 34 36 39 39 43 47 54 63 70 71 68 59 43 21 19 24 32 29 24 15 20 26 42 42 31 35 46 63 65 63 66 66 58 55 58 59 63 41 44 47 67 58 60
30 30 32 36 38 38 42 46 55 63 70 71 68 60 36 19 22 29 31 26 19 9 13 27 42 46 34 25 42 57 58 60 60 57 64 59 71 41 73 67 52 45 52 58 57
28 27 31 37 38 38 41 46 53 61 71 74 68 47 23 18 26 32 29 25 15 7 11 25 43 51 43 22 40 49 51 57 56 58 63 56 67 56 60 44 55 42 53 49 49
26 26 32 38 36 37 40 46 53 62 69 71 62 30 20 21 29 30 30 24 14 7 6 24 42 55 48 33 35 46 51 34 56 58 61 59 54 38 64 55 49 51 43 62 59
24 27 31 35 34 35 39 45 52 61 69 68 59 35 23 27 29 27 29 25 16 10 11 15 38 50 48 36 31 42 54 38 40 58 61 65 57 49 47 66 59 57 46 39 53
24 26 30 33 31 34 38 43 52 60 66 69 59 34 23 28 30 28 28 23 14 3 10 13 38 44 47 36 30 36 34 40 42 40 51 58 64 54 48 51 65 63 60 50 42
23 26 29 29 30 32 37 43 51 59 64 70 66 37 23 26 33 28 24 17 14 14 7 8 40 40 37 33 34 37 36 32 36 32 34 44 42 52 45 40 43 44 47 52 54
21 23 27 27 28 30 35 41 50 59 59 66 62 25 22 26 31 22 18 15 19 14 14 19 42 39 35 37 35 40 32 30 27 23 27 29 29 37 46 36 36 38 46 46 52
19 21 24 25 25 28 34 40 48 54 62 70 57 25 23 26 29 20 17 9 7 13 13 20 25 28 23 37 30 42 33 37 32 24 31 27 26 21 35 39 33 40 40 46 43
16 17 21 24 23 28 32 38 46 52 60 68 54 22 20 28 29 19 19 9 3 12 15 22 25 25 23 31 27 30 34 39 31 28 30 25 24 17 20 37 35 35 43 46 42
12 14 20 22 21 26 31 36 42 49 57 65 48 22 22 28 30 16 18 16 10 18 15 22 23 22 22 34 35 33 33 32 39 30 22 26 27 22 20 30 33 32 43 49 44
10 13 17 19 19 24 28 33 40 46 54 60 50 21 21 28 28 16 16 17 16 17 17 21 19 14 19 22 30 39 29 32 27 26 31 29 26 25 21 26 33 34 42 40 40
9 11 15 16 17 21 25 31 38 44 51 57 50 24 19 26 28 18 11 13 13 17 9 16 16 14 10 19 19 28 30 20 29 23 19 26 29 27 26 24 27 35 35 46 39
6 10 13 13 15 19 24 31 35 42 48 53 50 28 20 23 24 23 15 13 10 14 12 8 12 16 14 21 20 25 24 18 26 25 24 23 20 16 18 24 22 32 27 32 31
3 8 12 13 13 18 23 29 32 39 45 52 51 34 17 20 22 16 16 16 18 14 13 12 11 16 21 24 21 18 24 19 21 20 24 20 17 17 18 27 27 27 30 32 32
2 5 10 12 12 17 22 27 29 37 43 49 50 36 16 17 17 16 12 12 13 14 14 14 10 12 17 21 17 17 13 17 17 18 18 11 20 21 28 26 30 35 32 30 30
2 4 9 9 11 15 21 25 27 33 40 46 48 41 20 13 14 15 13 9 13 13 11 9 6 4 10 14 17 16 6 19 16 12 13 9 15 18 24 31 29 27 32 38 34
3 2 7 8 10 14 19 22 25 29 38 42 44 42 24 10 8 14 13 10 12 9 7 7 5 4 3 11 14 14 9 14 12 16 15 14 14 18 18 24 29 35 29 31 34
3 2 6 9 10 13 17 20 23 27 34 39 42 41 27 13 6 7 8 9 8 8 4 5 1 4 8 9 5 15 13 9 8 14 15 17 17 14 19 24 27 28 31 30 29
Wind_Direction
314 316 318 314 315 322 328 331 335 337 339 338 340 341 340 333 323 314 305 302 301 307 293 244 200 202 205 200 201 200 202 213 209 210 196 204 207 207 212 214 213 216 206 206 215
315 315 319 316 319 321 328 331 335 337 340 338 341 340 338 332 321 312 310 307 307 316 275 193 216 200 210 197 199 201 201 186 210 209 207 206 207 209 217 214 210 215 217 210 210
314 314 316 318 320 322 327 332 335 338 341 339 342 339 337 333 323 316 310 308 313 320 276 196 210 203 206 196 199 201 197 196 194 204 207 203 207 210 211 219 215 212 221 217 211
311 312 314 318 320 323 329 332 336 340 341 339 341 339 335 333 320 316 313 315 319 320 292 206 208 203 203 196 199 200 198 205 197 200 201 205 204 207 209 216 216 214 215 219 215
309 310 313 320 322 325 331 332 338 342 340 341 341 338 335 333 323 315 315 321 324 316 266 210 206 193 208 207 197 201 199 200 204 197 199 206 204 200 200 210 212 212 214 215 216
308 311 316 323 324 325 332 335 341 342 341 342 341 337 336 332 324 316 321 325 325 309 242 203 191 179 211 212 195 197 201 203 202 205 197 201 203 206 207 209 214 216 214 216 214
307 310 317 320 322 325 332 338 343 343 344 343 341 335 340 334 330 323 328 329 323 304 228 201 195 190 191 208 200 199 201 205 207 198 202 196 199 207 214 214 217 214 218 215 215
306 311 317 317 322 328 334 341 343 344 346 344 341 336 343 334 331 330 335 331 323 298 215 205 197 201 188 189 204 196 201 207 206 196 193 203 198 203 201 199 210 217 218 218 217
304 312 315 318 325 330 336 343 345 346 346 344 341 342 344 344 336 340 339 332 327 286 218 207 194 194 186 193 199 198 202 205 210 202 195 200 190 200 206 202 194 204 210 212 215
306 312 315 321 328 332 338 345 346 348 347 346 343 344 346 354 342 347 339 335 333 280 230 205 189 182 165 177 201 198 200 206 210 205 196 201 201 186 197 209 196 200 214 208 211
304 311 315 324 330 334 340 348 348 350 348 348 348 346 360 350 351 351 342 339 331 297 238 202 187 183 189 170 195 198 203 210 208 210 198 201 201 196 201 199 212 192 210 210 212
299 311 318 323 330 336 344 350 350 352 350 349 351 356 8 353 353 350 345 345 326 265 248 205 192 187 193 183 183 198 193 192 209 209 207 194 192 198 214 214 208 203 198 215 217
297 310 316 325 330 339 346 353 352 355 353 355 354 15 11 2 357 355 355 348 336 257 217 208 195 188 195 186 178 191 200 194 203 213 215 208 197 205 199 211 216 220 219 211 211
294 307 317 325 331 342 351 354 355 356 355 353 357 11 10 4 6 3 6 7 13 14 198 199 194 183 194 193 176 196 191 204 205 212 221 221 217 220 201 207 221 229 231 228 222
294 307 315 324 334 346 354 356 358 358 354 357 354 6 7 1 3 9 20 36 57 78 109 177 178 167 184 188 188 189 197 191 200 209 214 222 226 220 215 219 222 223 223 230 226
295 307 315 325 336 346 355 358 0 1 356 359 356 7 359 356 1 10 29 47 36 61 62 138 174 167 155 168 168 188 182 186 184 192 208 206 226 231 234 227 230 226 223 228 218
293 309 321 332 337 349 357 -0 3 4 2 2 359 5 4 3 7 16 31 45 13 58 98 126 181 176 166 152 158 170 180 176 180 192 186 187 192 214 219 216 223 222 215 221 214
290 310 325 335 340 352 357 1 4 4 6 3 1 8 7 7 12 22 31 74 69 61 112 159 166 188 158 159 154 180 180 194 189 201 201 216 212 199 200 212 220 222 220 215 215
292 305 324 339 343 353 357 6 5 8 9 6 4 5 3 10 12 26 40 64 102 92 134 154 168 185 173 161 161 162 182 188 198 212 210 218 224 225 232 207 213 223 214 215 217
284 307 328 342 346 353 1 7 8 11 13 9 6 4 4 12 18 30 56 73 94 77 127 146 169 168 190 155 162 170 165 173 183 198 207 213 223 228 231 223 216 219 214 214 215
269 315 333 343 350 358 6 9 10 13 15 12 8 10 10 15 24 43 69 92 86 68 118 155 175 173 181 170 153 164 173 172 192 196 195 205 215 215 224 231 216 212 213 214 219
258 325 341 348 359 3 10 13 11 16 16 14 12 16 18 25 34 46 82 105 101 71 118 156 201 168 189 177 170 168 154 176 199 205 211 217 217 216 218 217 203 198 208 216 215
281 336 350 352 5 11 13 16 12 18 19 17 15 18 19 32 33 54 74 90 106 95 102 125 177 166 172 178 176 179 189 179 184 188 203 209 222 203 200 193 176 187 199 205 211
250 338 353 353 8 15 15 17 12 18 22 18 17 21 23 25 38 49 66 90 99 81 94 87 124 174 181 187 184 185 208 203 197 197 213 209 180 181 185 191 195 189 191 197 203
177 343 351 9 16 16 18 15 13 20 24 22 19 23 26 15 41 45 52 95 102 87 76 89 112 170 197 202 200 197 234 190 192 202 214 233 203 202 198 190 191 196 207 214 215
192 325 356 20 23 20 21 14 15 20 26 23 19 22 22 9 32 49 50 70 101 86 91 107 129 151 171 215 222 242 203 202 202 203 198 195 205 207 210 206 212 202 208 211 215
182 218 355 16 20 23 22 16 15 21 25 26 19 20 24 34 13 45 63 59 63 76 115 152 232 241 174 181 186 180 165 156 168 186 199 211 229 225 217 212 216 213 214 213 214